This is the latest recevied weather packets stored in our database for station/object KQ7A. If no packets are shown the sender has not sent any weather packets the latest 10 day(s).
| Time | Temp. | Humidity | Pressure | Rain* | Wind** | Luminosity | Snow |
|---|---|---|---|---|---|---|---|
| 1787974225 | 15.56° C | 92% | 1021.8 hPa | 0 mm | - | 0 W/m² | - |
| 1787973919 | 15.56° C | 92% | 1021.8 hPa | 0 mm | - | 0 W/m² | - |
| 1787973614 | 15.56° C | 92% | 1021.9 hPa | 0 mm | - | 0 W/m² | - |
| 1787973310 | 15.56° C | 92% | 1022 hPa | 0 mm | - | 0 W/m² | - |
| 1787973009 | 16.11° C | 92% | 1021.5 hPa | 0 mm | - | 0 W/m² | - |
| 1787972705 | 16.11° C | 92% | 1021.9 hPa | 0 mm | - | 0 W/m² | - |
| 1787972404 | 16.11° C | 92% | 1022 hPa | 0 mm | - | 0 W/m² | - |
| 1787972098 | 16.11° C | 92% | 1021.8 hPa | 0 mm | - | 0 W/m² | - |
| 1787971792 | 16.11° C | 91% | 1021.9 hPa | 0 mm | - | 0 W/m² | - |
| 1787971488 | 16.11° C | 91% | 1022 hPa | 0 mm | - | 0 W/m² | - |
| 1787971184 | 16.11° C | 91% | 1021.8 hPa | 0 mm | - | 0 W/m² | - |
| 1787970883 | 16.11° C | 91% | 1021.5 hPa | 0 mm | - | 0 W/m² | - |
| 1787970577 | 16.67° C | 90% | 1021.6 hPa | 0 mm | - | 2 W/m² | - |
| 1787970273 | 16.67° C | 89% | 1021.5 hPa | 0 mm | - | 3 W/m² | - |
| 1787969970 | 16.67° C | 88% | 1021.4 hPa | 0 mm | - | 4 W/m² | - |
| 1787969667 | 16.67° C | 88% | 1021.8 hPa | 0 mm | - | 6 W/m² | - |
| 1787969359 | 16.67° C | 88% | 1021.8 hPa | 0 mm | - | 7 W/m² | - |
| 1787969058 | 16.67° C | 88% | 1021.9 hPa | 0 mm | - | 7 W/m² | - |
| 1787968754 | 16.67° C | 87% | 1021.6 hPa | 0 mm | - | 10 W/m² | - |
| 1787968456 | 16.67° C | 86% | 1021.8 hPa | 0 mm | - | 9 W/m² | - |
| 1787968148 | 16.67° C | 85% | 1022 hPa | 0 mm | - | 9 W/m² | - |
| 1787967847 | 16.67° C | 86% | 1022 hPa | 0 mm | - | 11 W/m² | - |
| 1787967545 | 17.22° C | 85% | 1022.1 hPa | 0 mm | - | 12 W/m² | - |
| 1787967239 | 17.22° C | 84% | 1022.1 hPa | 0 mm | - | 16 W/m² | - |
| 1787966936 | 17.22° C | 84% | 1022.1 hPa | 0 mm | - | 21 W/m² | - |
* Rain latest hour (hover to see other rain measurements)
** Current wind speed in m/s (hover to see current wind gust speed)